Location: Banff
(51.1667°N, 115.5667°W)
Time: 02:07:15
(UTC+00:00)

deb Explorer IX - Pass Details

Date: 05 December 2020
Orbit: 536 x 1104 km, 38.8° (Epoch: 25 January)

Event Time Altitude Azimuth Distance (km) Brightness Sun altitude
Rises 02:34:32 0° 260° (W) 3,504 ? -26.8°
Reaches altitude 10° 02:39:02 10° 231° (SW) 2,403 ? -27.5°
Maximum altitude 02:41:00 12° 210° (SSW) 2,201 ? -27.8°
Drops below altitude 10° 02:42:54 10° 189° (S) 2,259 ? -28.1°
Enters shadow 02:43:50 - 180° (S) 2,376 ? -28.3°
